星链-3828 (STARLINK-3828 )

导读 | 豆包AI

STARLINK-3828是美国太空探索技术公司(SpaceX)星链星座的卫星,于2022年5月6日发射升空,属于星链互联网卫星组网计划的组成部分。星链系统旨在通过近地轨道卫星群,为全球提供高速低延迟的互联网接入服务,该卫星进一步扩充了星链星座的服务覆盖能力。

基本信息
目录编号:
52469
目录名称:
STARLINK-3828
国际标识:
2022-049U
轨道中心:
EARTH
卫星名称:
星链-3828
卫星全名:
星链-3828 (STARLINK-3828 )
卫星状态:
在轨 (已飞行1408 天)
发射日期:
2022-05-06 UTC
国别 :
美国 (US)
星等 :
--
轨道信息
数据来源 国际轨道数据
星历时间: 2026-03-14T11:53:16+0800
19小时前
查看轨道信息
半长轴: 6917.938km
偏心率: 0.0000914
轨道倾角: 53.218°
近地点辐角 73.954°
升交点赤经 39.050°
平近点角 286.155°
近地点: 539.168km
远地点: 540.434km
周期: 95.439分钟
每日圈数: 15.088213
详细信息
固有亮度:
5
最大亮度:
2.5
卫星平台:
Starlink v1.5
覆盖范围:
全球
运营商:
太空探索技术公司
运营商所在国:
美国
制造商(研发单位):
太空探索技术公司
制造商所在国:
美国
使用方式:
暂无
卫星简介
星链(Starlink)计划是由太空探索技术公司(SpaceX)提出的一个巨型低轨卫星互联网星座项目,计划在2019年至2024年间在太空搭建由约1.2万颗卫星组成的“星链”网络,其中1584颗将部署在地球上空550千米处的近地轨道,并从2020年开始工作。该卫星仍在工作。
2D轨道图
3D轨道图
轨道高度分析图
轨道倾角分析图
轨道综合分析图
查看轨道综合分析图